Satellite-Ground Cal/Val Region Overpasses Predictions

Prediction of Satellite NPP Overpassing Cal/Val Region: PacNW

Region Location: (Latitude: 10.00, Longitude: 139.50) to (Latitude: 22.70, Longitude: 165.60).

Table of predicted overpasses for the next 14.0 days since TLE Epoch: 10/9/2015
Interval Starting Time Starting Location Ending Time Ending Location
1 10/09/2015 15:33:10 ( 22.69, 152.38) 10/09/2015 15:36:45 ( 10.00, 149.37)
2 10/10/2015 02:42:14 ( 10.00, 159.93) 10/10/2015 02:45:50 ( 22.68, 156.92)
3 10/10/2015 15:14:07 ( 22.69, 157.14) 10/10/2015 15:17:43 ( 10.01, 154.13)
4 10/11/2015 02:23:13 ( 10.05, 164.67) 10/11/2015 02:26:48 ( 22.68, 161.68)
5 10/11/2015 14:55:05 ( 22.69, 161.89) 10/11/2015 14:58:41 ( 10.01, 158.89)
6 10/12/2015 03:45:40 ( 10.06, 144.05) 10/12/2015 03:49:15 ( 22.68, 141.06)
7 10/12/2015 14:37:16 ( 18.36, 165.59) 10/12/2015 14:39:38 ( 10.02, 163.64)
8 10/12/2015 16:17:32 ( 22.69, 141.27) 10/12/2015 16:19:37 ( 15.35, 139.50)
9 10/13/2015 03:26:38 ( 10.05, 148.81) 10/13/2015 03:30:13 ( 22.68, 145.81)
10 10/13/2015 15:58:30 ( 22.69, 146.03) 10/13/2015 16:02:06 ( 10.01, 143.02)
11 10/14/2015 03:07:35 ( 10.05, 153.56) 10/14/2015 03:11:10 ( 22.67, 150.57)
12 10/14/2015 15:39:27 ( 22.70, 150.79) 10/14/2015 15:43:03 ( 10.02, 147.78)
13 10/15/2015 02:48:33 ( 10.05, 158.32) 10/15/2015 02:52:08 ( 22.67, 155.33)
14 10/15/2015 15:20:25 ( 22.70, 155.54) 10/15/2015 15:24:01 ( 10.02, 152.54)
15 10/16/2015 02:29:30 ( 10.04, 163.08) 10/16/2015 02:33:05 ( 22.67, 160.08)
16 10/16/2015 15:01:23 ( 22.64, 160.29) 10/16/2015 15:04:58 ( 10.02, 157.29)
17 10/17/2015 02:13:11 ( 19.62, 165.59) 10/17/2015 02:14:03 ( 22.67, 164.84)
18 10/17/2015 03:51:58 ( 10.05, 142.46) 10/17/2015 03:55:30 ( 22.50, 139.51)
19 10/17/2015 14:42:21 ( 22.65, 165.04) 10/17/2015 14:45:56 ( 10.02, 162.05)
20 10/17/2015 16:23:50 ( 22.70, 139.68) 10/17/2015 16:24:02 ( 21.99, 139.50)
21 10/18/2015 03:32:56 ( 10.05, 147.21) 10/18/2015 03:36:31 ( 22.67, 144.22)
22 10/18/2015 16:04:47 ( 22.70, 144.44) 10/18/2015 16:08:23 ( 10.02, 141.43)
23 10/19/2015 03:13:53 ( 10.05, 151.97) 10/19/2015 03:17:28 ( 22.67, 148.98)
24 10/19/2015 15:45:45 ( 22.70, 149.19) 10/19/2015 15:49:21 ( 10.02, 146.19)
25 10/20/2015 02:54:51 ( 10.05, 156.73) 10/20/2015 02:58:26 ( 22.67, 153.73)
26 10/20/2015 15:26:42 ( 22.70, 153.95) 10/20/2015 15:30:18 ( 10.02, 150.94)
27 10/21/2015 02:35:48 ( 10.05, 161.48) 10/21/2015 02:39:23 ( 22.67, 158.49)
28 10/21/2015 15:07:41 ( 22.64, 158.69) 10/21/2015 15:11:16 ( 10.02, 155.70)
29 10/22/2015 02:17:34 ( 12.87, 165.59) 10/22/2015 02:20:21 ( 22.67, 163.24)
30 10/22/2015 03:58:16 ( 10.06, 140.86) 10/22/2015 03:59:56 ( 15.93, 139.50)
31 10/22/2015 14:48:38 ( 22.64, 163.45) 10/22/2015 14:52:13 ( 10.02, 160.45)


NCC Satellite Cal/Val Overpasses Prediction Service
